(779) Nina
ephemeris date magn radius delta ra dec elong phase
Today18 Sep 202510.82.122 AU1.201 AU00h06m+29°16'148.2°14.5°
Opposition3 Oct 202510.72.144 AU1.202 AU23h52m+28°22'153.4°12.1°
(779) Nina - 2025-09-18
astro.vanbuitenen.nl


 
-1 year
-1 month
-1 day
Now
+1 day
+1 month
+1 year

The interactive orbit chart above shows the body's path through the solar system and its position at the given date. Green and blue lines are shown perpendicular to the ecliptic plane: Green if the path is above the ecliptic plane, blue if it is below. (Left-click and drag to rotate the view; Right-click and drag to move the view; Use scroll wheel to zoom in our out.)

The orbital elements of Nina are:

            e (Eccentricity)                : 0.2264168
            a (Semimajor axis)              : 2.6649703
            i (Inclination)                 : 14.57380
            Ω (Longitude of ascending node) : 283.69829
            ω (Argument of perihelion)      : 49.09759
            M (Mean anomaly)                : 349.40469
            Epoch                           : 2025 May 05

            L (Longitude of perihelion)     : 331.86653
            B (Latitude of perihelion)      : 10.96364
            P (Orbital period in years)     : 4.35            
        

The light curve chart below shows the estimated development of the minor planet's magnitude.


The all-sky chart below shows the path of the minor planet over the same period as the light curve. The current position is marked yellow.





The following chart shows the path of the minor planet in the next few days. The field of view is optimized for (~10x50) binoculars and finderscopes. A more printer-friendly version of the same chart can be found below.




Ephemerides:
Date       Time       RA (2000)    DEC (2000)    delta   radius  elong  phase   PA    magn
2025-09-18 00:00 UT   00 06 02.8   +29 16 53     1.201    2.122  148.2   14.5   192   10.8 
2025-09-18 10:03 UT   00 05 40.3   +29 16 39     1.200    2.123  148.4   14.4   191   10.8 
2025-09-19 00:00 UT   00 05 08.8   +29 16 12     1.199    2.123  148.8   14.2   190   10.8 
2025-09-20 00:00 UT   00 04 14.4   +29 15 07     1.198    2.125  149.3   14.0   188   10.8 
2025-09-21 00:00 UT   00 03 19.6   +29 13 36     1.197    2.126  149.8   13.7   185   10.8 
2025-09-22 00:00 UT   00 02 24.6   +29 11 42     1.196    2.127  150.3   13.5   183   10.8 
2025-09-23 00:00 UT   00 01 29.5   +29 09 23     1.196    2.129  150.8   13.3   181   10.8 
2025-09-24 00:00 UT   00 00 34.3   +29 06 41     1.195    2.130  151.2   13.1   179   10.8 
2025-09-25 00:00 UT   23 59 39.3   +29 03 35     1.195    2.132  151.6   12.9   176   10.7 
2025-09-26 00:00 UT   23 58 44.3   +29 00 06     1.195    2.133  152.0   12.8   174   10.7 
2025-09-27 00:00 UT   23 57 49.7   +28 56 15     1.195    2.134  152.3   12.6   171   10.7 
2025-09-28 00:00 UT   23 56 55.4   +28 52 01     1.196    2.136  152.6   12.5   169   10.7 
2025-09-29 00:00 UT   23 56 01.6   +28 47 26     1.196    2.137  152.8   12.4   166   10.7 
2025-09-30 00:00 UT   23 55 08.3   +28 42 30     1.197    2.139  153.0   12.3   164   10.7 
2025-10-01 00:00 UT   23 54 15.6   +28 37 13     1.198    2.140  153.2   12.2   161   10.7 
2025-10-02 00:00 UT   23 53 23.7   +28 31 37     1.200    2.142  153.3   12.1   158   10.7 
2025-10-03 00:00 UT   23 52 32.6   +28 25 41     1.201    2.143  153.4   12.1   155   10.7 
2025-10-04 00:00 UT   23 51 42.3   +28 19 26     1.203    2.145  153.4   12.1   153   10.7 
2025-10-05 00:00 UT   23 50 53.0   +28 12 54     1.205    2.146  153.4   12.1   150   10.8 
2025-10-06 00:00 UT   23 50 04.8   +28 06 04     1.207    2.148  153.3   12.1   147   10.8 
2025-10-07 00:00 UT   23 49 17.7   +27 58 58     1.209    2.149  153.2   12.1   145   10.8 
2025-10-08 00:00 UT   23 48 31.8   +27 51 36     1.212    2.151  153.0   12.2   142   10.8 
2025-10-09 00:00 UT   23 47 47.1   +27 43 59     1.215    2.152  152.8   12.2   139   10.8 
2025-10-10 00:00 UT   23 47 03.8   +27 36 08     1.218    2.154  152.6   12.3   137   10.8 
2025-10-11 00:00 UT   23 46 21.8   +27 28 03     1.221    2.155  152.3   12.4   134   10.8 
2025-10-12 00:00 UT   23 45 41.3   +27 19 45     1.224    2.157  151.9   12.6   132   10.8 
2025-10-13 00:00 UT   23 45 02.3   +27 11 15     1.228    2.159  151.6   12.7   129   10.8 
2025-10-14 00:00 UT   23 44 24.8   +27 02 34     1.232    2.160  151.2   12.9   127   10.8 
2025-10-15 00:00 UT   23 43 48.9   +26 53 43     1.236    2.162  150.7   13.0   125   10.9 
2025-10-16 00:00 UT   23 43 14.7   +26 44 42     1.240    2.163  150.3   13.2   123   10.9 
2025-10-17 00:00 UT   23 42 42.2   +26 35 32     1.245    2.165  149.8   13.4   120   10.9 
2025-10-18 00:00 UT   23 42 11.5   +26 26 15     1.250    2.167  149.2   13.6   118   10.9 


    Terminology:
            
    delta:  distance between minor planet and earth in AU
    radius: distance between minor planet and sun in AU
    magn:   magnitude (brightness) estimate    
    ra:     right ascension in hours (24h = 360deg)
    dec:    declination in degrees
    elong:  elongation in degrees (angle sun-earth-minor planet)    
    phase:  phase angle in degrees (angle sun-minor planet-earth)        
    AU:     Astronomical Unit (mean distance between earth and sun: 149597870.7 km
    

Orbital elements provided by the MPC (Minor Planet Center).
Calculations by a modified version of AAPlus, a C# implementation of the AA+ project by PJ Naughter from the algorithms presented in the book "Astronomical Algorithms" by Jean Meeus.
NGC2000 dso catalog and star labels from VizieR as provided by the Strasbourg astronomical Data Center.
Tycho2 catalog from the ESO archive.